Vorticity
-2 1 2 3 2 5 10 6 4 7 8 8 8 8 8 8 7 7 10 9 6 9 8 8 7 10 11 13 16 10 9 10 8 13 14 7 8 9 7 5 5 6 7
-3 0 3 3 -0 -1 -1 4 14 7 6 7 7 7 8 8 7 8 10 6 6 6 7 9 8 8 9 9 11 12 12 8 7 8 9 9 7 5 5 6 8 8 7
2 2 1 5 1 -1 -1 -1 -1 15 10 9 8 8 7 8 8 8 7 6 6 6 6 6 6 7 7 8 8 8 8 6 6 6 6 6 6 7 8 9 7 6 6
5 2 -0 5 1 -0 -0 -1 -1 -0 10 12 10 8 8 7 8 9 9 7 7 7 7 7 7 7 7 7 7 7 6 7 7 8 7 7 8 7 7 6 5 5 6
1 4 1 4 0 -1 -0 -0 0 0 -1 5 9 11 8 7 6 6 7 8 8 9 9 9 9 9 9 9 8 7 7 7 7 6 7 8 8 8 7 6 6 6 6
-0 3 3 5 1 -1 1 1 0 -0 -1 1 4 10 8 10 7 6 5 4 5 5 5 5 6 6 7 7 7 7 7 7 7 6 6 5 6 6 6 7 6 7 6
1 0 2 6 2 1 1 1 0 -2 1 -3 1 2 4 5 6 10 8 4 4 4 5 6 7 7 7 6 5 6 5 5 5 6 6 6 6 6 6 6 6 6 7
3 0 2 5 3 2 2 -0 1 -0 1 1 -4 1 2 4 1 3 2 7 10 8 6 4 3 2 2 3 3 4 4 4 4 4 5 5 6 8 8 8 7 6 6
10 4 2 3 2 3 2 2 0 1 1 2 1 -4 2 1 5 2 3 3 -0 1 1 3 5 6 5 5 4 4 2 2 2 2 2 3 5 4 6 9 9 8 8
-0 5 8 5 3 3 3 3 2 4 3 1 2 1 -0 -3 -3 3 2 4 4 1 0 0 0 -1 1 2 1 3 4 3 4 4 4 3 3 3 6 4 8 9 8
6 7 8 12 6 4 3 3 4 5 4 4 2 1 2 1 0 -2 1 3 3 2 2 2 1 0 -1 0 1 0 1 2 1 2 3 3 4 4 4 5 4 9 9
11 12 14 12 10 6 5 5 6 6 6 5 5 4 3 2 2 3 2 3 4 3 4 3 3 3 2 2 1 1 1 1 2 1 2 2 2 4 4 4 4 4 8
5 8 10 13 13 11 9 8 8 7 6 6 5 6 6 6 6 5 5 4 3 3 4 4 4 4 5 4 4 3 3 3 2 2 2 3 2 2 3 5 4 4 4
5 5 6 6 6 6 7 6 6 9 9 9 7 7 7 6 7 6 4 4 4 5 6 5 5 5 5 5 5 5 4 4 4 4 3 3 3 3 2 3 5 4 4
-1 5 4 5 6 6 7 8 8 7 6 4 5 5 6 6 6 6 5 3 3 4 5 7 6 6 6 6 6 7 6 6 6 5 5 4 4 4 4 3 4 5 5
2 1 1 3 1 1 2 3 3 3 5 7 7 7 6 5 5 4 6 6 7 5 3 3 4 4 5 5 5 6 7 8 7 7 6 6 5 5 5 4 4 6 5
2 -2 1 3 0 1 1 2 2 2 7 9 6 6 6 6 7 7 6 5 5 5 4 5 7 9 8 5 5 7 6 6 6 6 7 7 7 6 6 5 5 6 6
1 3 4 2 3 2 2 3 2 2 7 9 7 5 4 6 6 4 4 4 3 2 3 5 7 6 8 10 10 7 6 6 6 6 5 6 6 7 5 6 7 8 7
7 5 5 4 4 3 3 4 2 3 5 6 5 4 4 4 4 3 4 4 4 4 7 4 6 8 5 4 5 5 4 5 7 8 8 7 7 7 7 7 9 9 7
6 7 4 6 7 7 6 5 5 6 6 6 8 8 7 7 5 5 6 3 6 5 2 3 3 5 5 6 4 5 5 5 4 3 5 7 7 8 7 7 8 10 8
5 5 8 7 7 6 7 7 6 5 4 4 4 6 6 6 3 4 6 5 2 2 5 6 4 8 5 5 4 4 7 5 5 10 12 5 7 8 9 7 8 6 8
9 6 5 3 3 5 5 5 5 6 5 4 7 7 8 7 6 5 5 6 5 5 6 4 6 13 9 8 6 7 6 6 8 4 7 5 7 10 8 6 4 5 9
3 4 5 3 3 8 8 9 9 8 7 7 8 8 10 10 10 9 9 9 10 10 9 9 9 9 10 8 11 7 5 4 3 5 8 9 9 7 6 5 6 4 4
8 7 7 7 5 7 8 8 6 7 8 9 8 8 8 8 9 10 10 10 9 8 7 7 7 9 9 8 9 8 9 8 5 6 6 6 12 10 5 -5 5 3 2
3 5 5 4 6 5 5 7 9 10 9 9 9 8 8 9 11 13 12 13 13 14 12 10 11 11 12 13 11 10 14 15 20 6 11 6 9 16 13 8 29 9 10
6 8 8 7 6 7 7 9 11 10 9 9 8 8 8 7 6 6 7 8 7 7 6 5 4 13 14 10 4 10 8 9 10 9 10 12 9 7 27 -2 2 26 23
Height
3183 3184 3186 3187 3189 3189 3189 3188 3188 3187 3187 3186 3186 3185 3184 3183 3182 3181 3180 3179 3179 3179 3179 3179 3179 3180 3181 3181 3181 3182 3183 3183 3182 3182 3181 3181 3181 3180 3180 3179 3179 3178 3176
3184 3185 3187 3188 3190 3190 3191 3190 3190 3189 3188 3188 3187 3186 3185 3185 3184 3183 3182 3182 3181 3181 3181 3181 3182 3182 3182 3183 3183 3183 3183 3183 3183 3182 3182 3182 3182 3181 3180 3179 3178 3178 3177
3183 3185 3187 3189 3191 3191 3191 3192 3192 3191 3191 3190 3190 3189 3189 3187 3186 3185 3185 3184 3184 3184 3184 3184 3184 3184 3184 3184 3184 3184 3184 3184 3184 3183 3183 3182 3182 3181 3181 3180 3178 3178 3177
3183 3185 3187 3189 3191 3192 3193 3193 3193 3194 3194 3194 3193 3192 3191 3189 3189 3188 3187 3187 3187 3187 3186 3186 3186 3186 3186 3186 3186 3186 3185 3185 3185 3184 3184 3183 3183 3182 3181 3180 3179 3178 3178
3182 3185 3187 3189 3192 3193 3194 3195 3195 3196 3197 3197 3196 3194 3193 3192 3192 3191 3190 3190 3190 3189 3189 3189 3189 3189 3189 3189 3189 3188 3188 3187 3186 3186 3186 3185 3185 3183 3182 3181 3180 3178 3178
3182 3184 3187 3189 3191 3193 3195 3196 3196 3197 3198 3198 3197 3196 3195 3194 3194 3193 3193 3192 3192 3192 3192 3192 3192 3191 3191 3191 3191 3190 3190 3190 3189 3188 3187 3186 3185 3184 3183 3181 3180 3179 3178
3182 3184 3186 3189 3191 3193 3195 3196 3197 3198 3198 3197 3198 3198 3197 3197 3196 3196 3195 3195 3195 3194 3194 3194 3193 3193 3193 3193 3192 3192 3191 3190 3190 3189 3188 3187 3186 3184 3183 3182 3180 3179 3178
3181 3183 3186 3188 3191 3193 3195 3196 3197 3198 3198 3198 3198 3198 3198 3198 3198 3198 3198 3197 3197 3196 3196 3196 3195 3195 3195 3194 3193 3193 3192 3191 3191 3190 3189 3188 3186 3185 3183 3181 3180 3179 3177
3179 3182 3185 3187 3190 3192 3194 3195 3197 3198 3198 3199 3199 3199 3198 3198 3199 3199 3199 3199 3199 3198 3198 3197 3197 3197 3196 3195 3195 3194 3193 3192 3191 3190 3189 3188 3187 3185 3184 3182 3180 3179 3177
3178 3181 3183 3185 3188 3190 3192 3194 3196 3197 3198 3198 3198 3198 3199 3198 3199 3199 3200 3199 3199 3199 3198 3198 3197 3197 3196 3196 3195 3194 3193 3192 3192 3191 3190 3188 3187 3186 3184 3182 3180 3177 3176
3176 3178 3181 3184 3186 3189 3191 3193 3194 3196 3196 3197 3197 3197 3198 3198 3199 3199 3199 3199 3199 3198 3198 3198 3197 3197 3196 3196 3195 3194 3193 3192 3191 3190 3189 3187 3186 3185 3183 3181 3180 3178 3175
3175 3177 3179 3182 3184 3187 3189 3191 3192 3193 3195 3195 3195 3196 3196 3197 3198 3198 3198 3198 3198 3198 3197 3197 3196 3195 3195 3194 3194 3193 3192 3191 3190 3189 3188 3186 3185 3184 3182 3180 3178 3177 3175
3173 3176 3178 3181 3183 3185 3187 3189 3190 3191 3192 3193 3193 3194 3195 3195 3196 3196 3196 3196 3196 3195 3195 3195 3194 3193 3193 3192 3192 3191 3190 3189 3188 3187 3186 3185 3184 3182 3180 3179 3177 3176 3174
3172 3174 3177 3179 3181 3183 3185 3186 3187 3188 3189 3190 3191 3192 3193 3193 3194 3194 3194 3194 3193 3193 3192 3192 3191 3191 3190 3189 3188 3187 3187 3186 3186 3185 3184 3183 3181 3180 3179 3177 3175 3174 3172
3171 3173 3175 3177 3179 3181 3182 3183 3184 3185 3187 3187 3188 3189 3190 3190 3191 3191 3191 3191 3190 3190 3189 3188 3188 3187 3186 3185 3184 3183 3183 3183 3182 3181 3180 3179 3177 3176 3175 3174 3172 3171 3169
3169 3171 3173 3175 3177 3179 3180 3181 3182 3182 3183 3184 3184 3185 3186 3187 3187 3187 3187 3187 3186 3186 3185 3184 3183 3183 3182 3180 3179 3178 3177 3177 3177 3176 3176 3174 3173 3172 3171 3169 3168 3167 3166
3166 3167 3171 3172 3174 3176 3177 3178 3179 3179 3179 3180 3180 3181 3182 3182 3182 3183 3183 3183 3182 3181 3181 3180 3178 3177 3177 3175 3174 3173 3172 3172 3171 3171 3170 3169 3168 3167 3166 3165 3164 3162 3162
3161 3164 3166 3168 3170 3172 3174 3174 3175 3175 3175 3176 3176 3177 3177 3178 3178 3178 3178 3178 3177 3176 3175 3174 3173 3172 3171 3170 3169 3168 3167 3166 3165 3165 3165 3164 3163 3162 3161 3160 3159 3158 3156
3158 3160 3161 3163 3165 3167 3168 3169 3170 3170 3171 3171 3172 3173 3173 3173 3173 3173 3173 3173 3171 3170 3169 3168 3167 3166 3165 3164 3163 3162 3161 3160 3159 3159 3159 3158 3158 3157 3156 3155 3153 3152 3151
3154 3156 3158 3158 3159 3160 3162 3163 3164 3165 3166 3166 3167 3168 3168 3168 3167 3166 3166 3166 3165 3163 3163 3162 3160 3160 3158 3158 3156 3155 3154 3153 3152 3153 3152 3151 3151 3151 3149 3148 3147 3146 3144
3149 3151 3153 3154 3155 3155 3156 3158 3158 3159 3159 3159 3160 3161 3161 3161 3160 3160 3159 3159 3158 3156 3155 3154 3153 3152 3151 3151 3148 3147 3145 3145 3144 3145 3145 3144 3144 3143 3142 3141 3140 3139 3137
3144 3146 3147 3148 3149 3150 3151 3151 3152 3153 3153 3154 3155 3155 3155 3154 3154 3152 3152 3151 3150 3148 3147 3147 3146 3144 3144 3144 3141 3138 3134 3135 3137 3137 3136 3135 3136 3135 3134 3133 3132 3131 3129
3138 3140 3141 3142 3143 3144 3144 3145 3145 3146 3146 3146 3147 3148 3148 3146 3146 3144 3144 3143 3142 3140 3140 3139 3138 3137 3135 3135 3135 3133 3127 3124 3124 3125 3126 3126 3126 3126 3125 3124 3122 3121 3120
3132 3134 3134 3135 3136 3137 3137 3137 3137 3138 3138 3138 3139 3139 3139 3138 3138 3137 3136 3135 3134 3132 3131 3131 3130 3129 3128 3126 3125 3125 3123 3120 3115 3113 3114 3113 3114 3114 3114 3111 3111 3110 3108
3127 3128 3128 3129 3129 3129 3129 3130 3130 3130 3130 3130 3130 3130 3130 3130 3130 3130 3128 3127 3126 3125 3123 3122 3121 3121 3119 3118 3116 3115 3114 3112 3111 3107 3102 3102 3103 3102 3101 3101 3099 3099 3098
3120 3121 3122 3122 3123 3123 3123 3123 3122 3122 3122 3122 3123 3123 3123 3123 3123 3121 3121 3120 3119 3117 3115 3114 3113 3112 3111 3110 3108 3107 3106 3104 3102 3100 3096 3093 3090 3091 3091 3090 3088 3086 3084